User: anonymous   Login
Location: Maddington
(51.2000°N, 1.9167°W)
Time: 14:36:13
(UTC+00:00)
Language:

Cosmos 2278 Rocket - Orbit

View from above orbital plane
View from above orbital plane
View from above satellite
View from above satellite

Ground track
Ground track

The orbit data is extracted from the following two-line orbital elements,

1 23088U 94023B   20333.58588461 -.00000374 +00000-0 -16947-3 0  9991
2 23088 070.9970 156.6188 0004609 314.9091 045.1657 14.14684624373524
Epoch (UTC): 28 November 2020 14:03:40
Eccentricity: 0.0004609
inclination: 70.9970°
perigee height: 840 km
apogee height: 847 km
right ascension of ascending node: 156.6188°
argument of perigee: 314.9091°
revolutions per day: 14.14684624
mean anomaly at epoch: 45.1657°
orbit number at epoch: 37352

The dashed part of the orbit path shows where the satellite is in the earth's shadow,  

DLR